ARIANE 5 R/B, 49335

Orbit data source: Space-Track

ARIANE 5 R/B, 49335 is space debris in HEO originally from a launch on Sun, 24 Oct 2021 UTC launched from the French Guiana (FRGUI). Debris objects in space refer to the collection of defunct objects orbiting the Earth. Examples of debris include non-operational satellites, rocket bodies, and fragments generated from explosions, collisions, or faulty payload assembly.

Loading next visibility...
Identifier
49335, 2021-095D
Orbit
HEO
Country
Flag of FRFR
Related business
Manufacturer
ArianeGroup
Mission
Spacecraft
Bus & Motor
ESC-A, Unknown motor
Mass
~5,000 kg wet, ~5,000 kg dry
Launch date (UTC)
2021-10-24 (4 years ago)
Launch vehicle
Unknown
Launch site
French Guiana (FRGUI)
Object type
Payload
Rocket body
Debris
Shape & HBR
Cyl + 1 Nozzle, 3.5 m
Radar Cross Section
41.627 m², Large (>1 m²)

Expand to show TLE details & history
Last TLE update: 16 hours ago

TLE from 16 hours ago
0 ARIANE 5 R/B
1 49335U 21095D   26071.21929162  .00004089  00000-0  10519-2 0  9998
2 49335   5.8571 268.3972 7090456 145.3206 293.1547  2.52273072 38856
Epoch: 2026-03-12T05:15Z
TLE epoch observation values (Epoch: 2026-03-12T05:15:46.795Z)
Latitude
-0.00001°
Longitude
19.54854°
Altitude
20,807.267 km
Speed
3.44 km/s
True Right ascension
17h 53m 27s
True Declination
0° 00' 00"
Sunlit
Object was in daylight at epoch
Visualization orbit readout
Latitude
Unknown
Longitude
Unknown
Altitude
Unknown
Speed
Unknown
Apparent Right ascension
Unknown
Apparent Declination
Unknown
Sunlit
N/A
Visualization observer readout
Local Sidereal Time
01:58:43
Azimuth
Unknown
Elevation
Unknown
Doppler factor
Unknown
Orbital elements
Apogee altitude
32,587.207 km
Perigee altitude
255.471 km
Semi-major axis
22,799.476 km
Eccentricity
0.70905
Inclination
5.8571°
RAAN
268.3972°
Arg. of periapsis
145.3206°
True anomaly
214.59407°
Mean anomaly
293.1547°
Eccentric anomaly
254.08631°
Mean motion
0.63046 °/min
Orbital period
571.01 mins
BSTAR
0.0010519
Loading maneuver chart data...
Computing Atmospheric mass density...
Loading historical data...
Loading historical data...
Loading historical data...
Loading historical data...
Loading historical data...
Loading historical data...
Loading historical data...
Other satellites on launch #95 in the year 2021 (2021-10-24 UTC)

Documentation

Showing up to 5 results
|